Zurück zum Katalog

FENGYUN 1C DEB

LostPO
NORAD 31649·DEBRIS·🇨🇳 China

Gestartet May 10, 1999 von Taiyuan Satellite Launch Center

Loading…

Nächste Überflüge (nächste 24 Stunden)

TLE

VeraltetSource: Space-Track

Epoche: Oct 3, 2025, 09:17 UTC

1 31649U 99025CBF 25276.38699904  .00002874  00000-0  26205-2 0  9996
2 31649  98.1763 321.5625 0265782  39.5588 322.4631 13.69168310598710

Verfolge FENGYUN 1C DEB in Echtzeit mit AllMySat

Download on the App Store